Time,TemperatureF,DewpointF,PressureIn,WindDirection,WindDirectionDegrees,WindSpeedMPH,WindSpeedGustMPH,Humidity,HourlyPrecipIn,Conditions,Clouds,dailyrainin,SoftwareType,DateUTC
2013-01-24 00:23:00,8.0,-99.9,30.21,North,-999,-999.0,-999.0,-999,-99.99,,,-99.99,,2013-01-24 05:23:00,
2013-01-24 00:33:00,8.0,-99.9,30.21,North,-999,-999.0,-999.0,-999,-99.99,,,-99.99,,2013-01-24 05:33:00,
2013-01-24 00:43:00,8.0,-99.9,30.21,North,-999,-999.0,-999.0,-999,-99.99,,,-99.99,,2013-01-24 05:43:00,
2013-01-24 00:53:00,8.0,-99.9,30.19,North,-999,-999.0,-999.0,-999,-99.99,,,-99.99,,2013-01-24 05:53:00,
2013-01-24 01:22:00,8.0,-99.9,30.19,North,-999,-999.0,-999.0,-999,-99.99,,,-99.99,,2013-01-24 06:22:00,
2013-01-24 01:33:00,8.0,-99.9,30.19,North,-999,-999.0,-999.0,-999,-99.99,,,-99.99,,2013-01-24 06:33:00,
2013-01-24 01:42:00,8.0,-99.9,30.19,North,-999,-999.0,-999.0,-999,-99.99,,,-99.99,,2013-01-24 06:42:00,
2013-01-24 01:53:00,7.0,-99.9,30.18,North,-999,-999.0,-999.0,-999,-99.99,,,-99.99,,2013-01-24 06:53:00,
2013-01-24 02:34:00,7.0,-99.9,30.18,North,-999,-999.0,-999.0,-999,-99.99,,,-99.99,,2013-01-24 07:34:00,
2013-01-24 02:43:00,7.0,-99.9,30.18,North,-999,-999.0,-999.0,-999,-99.99,,,-99.99,,2013-01-24 07:43:00,
2013-01-24 02:53:00,6.0,-99.9,30.18,North,-999,-999.0,-999.0,-999,-99.99,,,-99.99,,2013-01-24 07:53:00,
2013-01-24 03:23:00,6.0,-99.9,30.18,North,-999,-999.0,-999.0,-999,-99.99,,,-99.99,,2013-01-24 08:23:00,
2013-01-24 03:33:00,6.0,-99.9,30.18,North,-999,-999.0,-999.0,-999,-99.99,,,-99.99,,2013-01-24 08:33:00,
2013-01-24 03:43:00,6.0,-99.9,30.18,North,-999,-999.0,-999.0,-999,-99.99,,,-99.99,,2013-01-24 08:43:00,
2013-01-24 03:53:00,7.0,-99.9,30.17,North,-999,-999.0,-999.0,-999,-99.99,,,-99.99,,2013-01-24 08:53:00,
2013-01-24 04:23:00,7.0,-99.9,30.17,North,-999,-999.0,-999.0,-999,-99.99,,,-99.99,,2013-01-24 09:23:00,
2013-01-24 04:34:00,7.0,-99.9,30.17,North,-999,-999.0,-999.0,-999,-99.99,,,-99.99,,2013-01-24 09:34:00,
2013-01-24 04:43:00,7.0,-99.9,30.17,North,-999,-999.0,-999.0,-999,-99.99,,,-99.99,,2013-01-24 09:43:00,
2013-01-24 04:53:00,8.0,-99.9,30.19,North,-999,-999.0,-999.0,-999,-99.99,,,-99.99,,2013-01-24 09:53:00,
2013-01-24 05:34:00,8.0,-99.9,30.19,North,-999,-999.0,-999.0,-999,-99.99,,,-99.99,,2013-01-24 10:34:00,
2013-01-24 05:44:00,8.0,-99.9,30.19,North,-999,-999.0,-999.0,-999,-99.99,,,-99.99,,2013-01-24 10:44:00,
2013-01-24 05:53:00,8.0,-99.9,30.21,North,-999,-999.0,-999.0,-999,-99.99,,,-99.99,,2013-01-24 10:53:00,
2013-01-24 06:23:00,8.0,-99.9,30.21,North,-999,-999.0,-999.0,-999,-99.99,,,-99.99,,2013-01-24 11:23:00,
2013-01-24 06:34:00,8.0,-99.9,30.21,North,-999,-999.0,-999.0,-999,-99.99,,,-99.99,,2013-01-24 11:34:00,
2013-01-24 06:43:00,8.0,-99.9,30.21,North,-999,-999.0,-999.0,-999,-99.99,,,-99.99,,2013-01-24 11:43:00,
2013-01-24 06:53:00,8.0,-99.9,30.22,North,-999,-999.0,-999.0,-999,-99.99,,,-99.99,,2013-01-24 11:53:00,
2013-01-24 07:23:00,8.0,-99.9,30.22,North,-999,-999.0,-999.0,-999,-99.99,,,-99.99,,2013-01-24 12:23:00,
2013-01-24 07:33:00,8.0,-99.9,30.22,North,-999,-999.0,-999.0,-999,-99.99,,,-99.99,,2013-01-24 12:33:00,
2013-01-24 07:43:00,8.0,-99.9,30.22,North,-999,-999.0,-999.0,-999,-99.99,,,-99.99,,2013-01-24 12:43:00,
2013-01-24 07:53:00,7.0,-99.9,30.23,North,-999,-999.0,-999.0,-999,-99.99,,,-99.99,,2013-01-24 12:53:00,
2013-01-24 08:33:00,7.0,-99.9,30.23,North,-999,-999.0,-999.0,-999,-99.99,,,-99.99,,2013-01-24 13:33:00,
2013-01-24 08:43:00,7.0,-99.9,30.23,North,-999,-999.0,-999.0,-999,-99.99,,,-99.99,,2013-01-24 13:43:00,
2013-01-24 08:53:00,14.0,-99.9,30.25,NNW,329,-999.0,4.0,-999,-99.99,,,-99.99,,2013-01-24 13:53:00,
2013-01-24 09:33:00,14.0,-99.9,30.25,NNW,329,-999.0,4.0,-999,-99.99,,,-99.99,,2013-01-24 14:33:00,
2013-01-24 09:43:00,14.0,-99.9,30.25,NNW,329,-999.0,4.0,-999,-99.99,,,-99.99,,2013-01-24 14:43:00,
2013-01-24 09:53:00,17.0,-99.9,30.27,NNE,33,-999.0,-999.0,-999,-99.99,,,-99.99,,2013-01-24 14:53:00,
2013-01-24 10:33:00,17.0,-99.9,30.27,NNE,33,-999.0,-999.0,-999,-99.99,,,-99.99,,2013-01-24 15:33:00,
2013-01-24 10:43:00,17.0,-99.9,30.27,NNE,33,-999.0,-999.0,-999,-99.99,,,-99.99,,2013-01-24 15:43:00,
2013-01-24 11:23:00,20.0,-99.9,30.28,North,-999,-999.0,10.0,-999,-99.99,,,-99.99,,2013-01-24 16:23:00,
2013-01-24 11:33:00,20.0,-99.9,30.28,North,-999,-999.0,10.0,-999,-99.99,,,-99.99,,2013-01-24 16:33:00,
2013-01-24 11:43:00,20.0,-99.9,30.28,North,-999,-999.0,10.0,-999,-99.99,,,-99.99,,2013-01-24 16:43:00,
2013-01-24 11:53:00,23.0,-99.9,30.27,North,-999,-999.0,5.0,-999,-99.99,,,-99.99,,2013-01-24 16:53:00,
2013-01-24 12:33:00,23.0,-99.9,30.27,North,-999,-999.0,5.0,-999,-99.99,,,-99.99,,2013-01-24 17:33:00,
2013-01-24 12:43:00,23.0,-99.9,30.27,North,-999,-999.0,5.0,-999,-99.99,,,-99.99,,2013-01-24 17:43:00,
2013-01-24 12:53:00,24.0,-99.9,30.27,North,-999,-999.0,11.0,-999,-99.99,,,-99.99,,2013-01-24 17:53:00,
2013-01-24 13:23:00,24.0,-99.9,30.27,North,-999,-999.0,11.0,-999,-99.99,,,-99.99,,2013-01-24 18:23:00,
2013-01-24 13:33:00,24.0,-99.9,30.27,North,-999,-999.0,11.0,-999,-99.99,,,-99.99,,2013-01-24 18:33:00,
2013-01-24 13:43:00,24.0,-99.9,30.27,North,-999,-999.0,11.0,-999,-99.99,,,-99.99,,2013-01-24 18:43:00,
2013-01-24 13:53:00,25.0,-99.9,30.27,North,3,15.0,27.0,-999,-99.99,,,-99.99,,2013-01-24 18:53:00,
2013-01-24 14:22:00,25.0,-99.9,30.27,North,3,15.0,27.0,-999,-99.99,,,-99.99,,2013-01-24 19:22:00,
2013-01-24 14:33:00,25.0,-99.9,30.27,North,3,15.0,27.0,-999,-99.99,,,-99.99,,2013-01-24 19:33:00,
2013-01-24 14:42:00,25.0,-99.9,30.27,North,3,15.0,27.0,-999,-99.99,,,-99.99,,2013-01-24 19:42:00,
2013-01-24 14:53:00,24.0,-99.9,30.29,NW,305,-999.0,15.0,-999,-99.99,,,-99.99,,2013-01-24 19:53:00,
2013-01-24 15:23:00,24.0,-99.9,30.29,NW,305,-999.0,15.0,-999,-99.99,,,-99.99,,2013-01-24 20:23:00,
2013-01-24 15:33:00,24.0,-99.9,30.29,NW,305,-999.0,15.0,-999,-99.99,,,-99.99,,2013-01-24 20:33:00,
2013-01-24 15:43:00,24.0,-99.9,30.29,NW,305,-999.0,15.0,-999,-99.99,,,-99.99,,2013-01-24 20:43:00,
2013-01-24 15:53:00,22.0,-99.9,30.32,North,-999,-999.0,-999.0,-999,-99.99,,,-99.99,,2013-01-24 20:53:00,
2013-01-24 16:23:00,22.0,-99.9,30.32,North,-999,-999.0,-999.0,-999,-99.99,,,-99.99,,2013-01-24 21:23:00,
2013-01-24 16:33:00,22.0,-99.9,30.32,North,-999,-999.0,-999.0,-999,-99.99,,,-99.99,,2013-01-24 21:33:00,
2013-01-24 16:44:00,22.0,-99.9,30.32,North,-999,-999.0,-999.0,-999,-99.99,,,-99.99,,2013-01-24 21:44:00,
2013-01-24 16:53:00,21.0,-99.9,30.35,North,-999,-999.0,-999.0,-999,-99.99,,,-99.99,,2013-01-24 21:53:00,
2013-01-24 17:23:00,21.0,-99.9,30.35,North,-999,-999.0,-999.0,-999,-99.99,,,-99.99,,2013-01-24 22:23:00,
2013-01-24 17:33:00,21.0,-99.9,30.35,North,-999,-999.0,-999.0,-999,-99.99,,,-99.99,,2013-01-24 22:33:00,
2013-01-24 17:43:00,21.0,-99.9,30.35,North,-999,-999.0,-999.0,-999,-99.99,,,-99.99,,2013-01-24 22:43:00,
2013-01-24 18:32:00,20.0,-99.9,30.38,North,-999,-999.0,-999.0,-999,-99.99,,,-99.99,,2013-01-24 23:32:00,
2013-01-24 18:43:00,20.0,-99.9,30.38,North,-999,-999.0,-999.0,-999,-99.99,,,-99.99,,2013-01-24 23:43:00,
2013-01-24 18:52:00,20.0,-99.9,30.38,North,-999,-999.0,-999.0,-999,-99.99,,,-99.99,,2013-01-24 23:52:00,
2013-01-24 18:53:00,19.0,-99.9,30.41,North,-999,-999.0,-999.0,-999,-99.99,,,-99.99,,2013-01-24 23:53:00,
2013-01-24 19:22:00,19.0,-99.9,30.41,North,-999,-999.0,-999.0,-999,-99.99,,,-99.99,,2013-01-25 00:22:00,
2013-01-24 19:32:00,19.0,-99.9,30.41,North,-999,-999.0,-999.0,-999,-99.99,,,-99.99,,2013-01-25 00:32:00,
2013-01-24 19:42:00,19.0,-99.9,30.41,North,-999,-999.0,-999.0,-999,-99.99,,,-99.99,,2013-01-25 00:42:00,
2013-01-24 20:22:00,19.0,-99.9,30.42,North,-999,-999.0,-999.0,-999,-99.99,,,-99.99,,2013-01-25 01:22:00,
2013-01-24 20:32:00,19.0,-99.9,30.42,North,-999,-999.0,-999.0,-999,-99.99,,,-99.99,,2013-01-25 01:32:00,
2013-01-24 20:43:00,19.0,-99.9,30.42,North,-999,-999.0,-999.0,-999,-99.99,,,-99.99,,2013-01-25 01:43:00,
2013-01-24 20:52:00,19.0,-99.9,30.42,North,-999,-999.0,-999.0,-999,-99.99,,,-99.99,,2013-01-25 01:52:00,
2013-01-24 20:53:00,18.0,-99.9,30.42,North,-999,-999.0,-999.0,-999,-99.99,,,-99.99,,2013-01-25 01:53:00,
2013-01-24 21:22:00,18.0,-99.9,30.42,North,-999,-999.0,-999.0,-999,-99.99,,,-99.99,,2013-01-25 02:22:00,
2013-01-24 21:33:00,18.0,-99.9,30.42,North,-999,-999.0,-999.0,-999,-99.99,,,-99.99,,2013-01-25 02:33:00,
2013-01-24 21:43:00,18.0,-99.9,30.42,North,-999,-999.0,-999.0,-999,-99.99,,,-99.99,,2013-01-25 02:43:00,
2013-01-24 21:53:00,17.0,-99.9,30.42,North,-999,-999.0,-999.0,-999,-99.99,,,-99.99,,2013-01-25 02:53:00,
2013-01-24 22:22:00,17.0,-99.9,30.42,North,-999,-999.0,-999.0,-999,-99.99,,,-99.99,,2013-01-25 03:22:00,
2013-01-24 22:33:00,17.0,-99.9,30.42,North,-999,-999.0,-999.0,-999,-99.99,,,-99.99,,2013-01-25 03:33:00,
2013-01-24 22:42:00,17.0,-99.9,30.42,North,-999,-999.0,-999.0,-999,-99.99,,,-99.99,,2013-01-25 03:42:00,
2013-01-24 22:52:00,17.0,-99.9,-100.00,South,183,12.0,15.0,-999,-99.99,,,-99.99,,2013-01-25 03:52:00,
2013-01-24 23:23:00,17.0,-99.9,-100.00,South,183,12.0,15.0,-999,-99.99,,,-99.99,,2013-01-25 04:23:00,
2013-01-24 23:32:00,17.0,-99.9,-100.00,South,183,12.0,15.0,-999,-99.99,,,-99.99,,2013-01-25 04:32:00,
2013-01-24 23:42:00,17.0,-99.9,-100.00,South,183,12.0,15.0,-999,-99.99,,,-99.99,,2013-01-25 04:42:00,